BAW2518 TAPA-TGPY

Flight info

Callsign BAW2518
Flight time 1h 5m
Altitude 40000
Route ANU
Aircraft B772/H-SDE2E3FGHIJ5LORVWXY/LB1D1

Departure

Time 2026-04-25 03:19
Airport V. C. Bird International Airport (TAPA)

Arrival

Time 2026-04-25 04:24
Airport Maurice Bishop International Airport (TGPY)
Time Latitude Longitude Altitude Speed Heading
2026-04-25 03:02 17.14132 -61.78974 68 ft 0 kts 328°
2026-04-25 03:09 17.14123 -61.78969 58 ft 4 kts 326°
2026-04-25 03:10 17.14102 -61.78951 58 ft 4 kts 315°
2026-04-25 03:10 17.14085 -61.78930 58 ft 4 kts 296°
2026-04-25 03:10 17.14080 -61.78906 58 ft 4 kts 247°
2026-04-25 03:10 17.14082 -61.78901 58 ft 0 kts 239°
2026-04-25 03:13 17.14081 -61.78902 58 ft 2 kts 239°
2026-04-25 03:13 17.14060 -61.78938 58 ft 10 kts 238°
2026-04-25 03:14 17.14012 -61.79020 61 ft 16 kts 238°
2026-04-25 03:14 17.13936 -61.79112 61 ft 17 kts 206°
2026-04-25 03:14 17.13845 -61.79189 60 ft 17 kts 230°
2026-04-25 03:14 17.13782 -61.79294 60 ft 17 kts 239°
2026-04-25 03:15 17.13720 -61.79400 60 ft 17 kts 238°
2026-04-25 03:15 17.13659 -61.79506 66 ft 17 kts 238°
2026-04-25 03:15 17.13596 -61.79612 63 ft 17 kts 238°
2026-04-25 03:15 17.13535 -61.79716 68 ft 17 kts 238°
2026-04-25 03:16 17.13494 -61.79787 64 ft 10 kts 238°
2026-04-25 03:16 17.13443 -61.79834 63 ft 10 kts 203°
2026-04-25 03:16 17.13366 -61.79848 64 ft 13 kts 195°
2026-04-25 03:16 17.13276 -61.79938 63 ft 24 kts 239°
2026-04-25 03:17 17.13174 -61.80112 63 ft 30 kts 238°
2026-04-25 03:17 17.13064 -61.80298 69 ft 30 kts 239°
2026-04-25 03:17 17.12953 -61.80463 70 ft 23 kts 218°
2026-04-25 03:17 17.12860 -61.80550 68 ft 5 kts 255°
2026-04-25 03:18 17.12880 -61.80577 67 ft 6 kts 353°
2026-04-25 03:18 17.12928 -61.80534 66 ft 13 kts 55°
2026-04-25 03:18 17.12999 -61.80416 68 ft 34 kts 58°
2026-04-25 03:18 17.13228 -61.80025 60 ft 98 kts 59°
2026-04-25 03:19 17.13717 -61.79199 106 ft 163 kts 58°
2026-04-25 03:19 17.14387 -61.78167 715 ft 179 kts 59°
2026-04-25 03:19 17.15092 -61.77091 1604 ft 178 kts 58°
2026-04-25 03:19 17.15829 -61.76023 2398 ft 185 kts 57°
2026-04-25 03:20 17.16597 -61.74901 3107 ft 194 kts 57°
2026-04-25 03:20 17.17347 -61.73728 3709 ft 193 kts 67°
2026-04-25 03:20 17.17508 -61.72376 4300 ft 190 kts 104°
2026-04-25 03:20 17.16860 -61.71125 4905 ft 203 kts 126°
2026-04-25 03:21 17.15912 -61.70082 5430 ft 201 kts 146°
2026-04-25 03:21 17.14590 -61.69529 6053 ft 213 kts 170°
2026-04-25 03:21 17.13098 -61.69467 6599 ft 222 kts 180°
2026-04-25 03:21 17.11556 -61.69624 7102 ft 227 kts 183°
2026-04-25 03:22 17.09902 -61.69779 7670 ft 248 kts 183°
2026-04-25 03:22 17.08095 -61.69939 8250 ft 273 kts 184°
2026-04-25 03:22 17.06156 -61.70115 8823 ft 281 kts 184°
2026-04-25 03:22 17.04201 -61.70299 9669 ft 286 kts 184°
2026-04-25 03:23 17.02208 -61.70488 10492 ft 293 kts 185°
2026-04-25 03:23 17.00086 -61.70690 10794 ft 321 kts 185°
2026-04-25 03:23 16.97775 -61.70913 11258 ft 341 kts 185°
2026-04-25 03:23 16.95377 -61.71142 12150 ft 347 kts 185°
2026-04-25 03:24 16.92984 -61.71368 13151 ft 349 kts 186°
2026-04-25 03:24 16.90547 -61.71599 14077 ft 355 kts 186°
2026-04-25 03:24 16.88060 -61.71837 14936 ft 360 kts 186°
2026-04-25 03:24 16.85537 -61.72079 15763 ft 367 kts 186°
2026-04-25 03:25 16.82968 -61.72328 16573 ft 375 kts 186°
2026-04-25 03:25 16.80355 -61.72581 17466 ft 379 kts 187°
2026-04-25 03:25 16.77706 -61.72834 18382 ft 384 kts 186°
2026-04-25 03:25 16.75032 -61.73086 19197 ft 387 kts 187°
2026-04-25 03:26 16.72341 -61.73341 20044 ft 390 kts 187°
2026-04-25 03:26 16.69652 -61.73598 20896 ft 393 kts 187°
2026-04-25 03:26 16.66905 -61.73863 21726 ft 397 kts 187°
2026-04-25 03:26 16.64134 -61.74130 22556 ft 401 kts 187°
2026-04-25 03:27 16.61342 -61.74400 23379 ft 405 kts 187°
2026-04-25 03:27 16.58522 -61.74673 24083 ft 409 kts 187°
2026-04-25 03:27 16.55668 -61.74949 24746 ft 413 kts 187°
2026-04-25 03:27 16.52781 -61.75227 25398 ft 418 kts 187°
2026-04-25 03:28 16.49886 -61.75500 26034 ft 422 kts 187°
2026-04-25 03:28 16.46932 -61.75779 26664 ft 426 kts 187°
2026-04-25 03:28 16.43974 -61.76061 27266 ft 429 kts 188°
2026-04-25 03:28 16.41015 -61.76344 27838 ft 433 kts 188°
2026-04-25 03:29 16.38002 -61.76634 28384 ft 437 kts 188°
2026-04-25 03:29 16.34947 -61.76929 28921 ft 442 kts 188°
2026-04-25 03:29 16.31875 -61.77226 29433 ft 446 kts 188°
2026-04-25 03:29 16.28764 -61.77526 29964 ft 449 kts 188°
2026-04-25 03:30 16.25637 -61.77828 30397 ft 453 kts 188°
2026-04-25 03:30 16.22493 -61.78130 30864 ft 454 kts 188°
2026-04-25 03:30 16.19345 -61.78432 31332 ft 455 kts 188°
2026-04-25 03:30 16.16183 -61.78735 31728 ft 458 kts 188°
2026-04-25 03:31 16.13003 -61.79041 32097 ft 460 kts 188°
2026-04-25 03:31 16.09807 -61.79348 32450 ft 462 kts 188°
2026-04-25 03:31 16.06600 -61.79655 32794 ft 463 kts 188°
2026-04-25 03:31 16.03386 -61.79964 33115 ft 465 kts 188°
2026-04-25 03:32 16.00159 -61.80273 33419 ft 466 kts 188°
2026-04-25 03:32 15.96965 -61.80580 33757 ft 466 kts 188°
2026-04-25 03:32 15.93731 -61.80889 34145 ft 464 kts 187°
2026-04-25 03:32 15.90524 -61.81195 34540 ft 462 kts 188°
2026-04-25 03:33 15.87324 -61.81500 34944 ft 460 kts 188°
2026-04-25 03:33 15.84171 -61.81800 35347 ft 458 kts 188°
2026-04-25 03:33 15.81006 -61.82102 35745 ft 456 kts 188°
2026-04-25 03:33 15.77848 -61.82403 36144 ft 454 kts 188°
2026-04-25 03:34 15.74699 -61.82703 36541 ft 452 kts 187°
2026-04-25 03:34 15.71562 -61.83002 36910 ft 451 kts 187°
2026-04-25 03:34 15.68439 -61.83300 37282 ft 450 kts 187°
2026-04-25 03:34 15.65319 -61.83597 37663 ft 449 kts 187°
2026-04-25 03:35 15.62211 -61.83893 38050 ft 447 kts 187°
2026-04-25 03:35 15.59120 -61.84187 38416 ft 446 kts 187°
2026-04-25 03:35 15.56066 -61.84473 38743 ft 445 kts 187°
2026-04-25 03:35 15.52986 -61.84757 39006 ft 444 kts 187°
2026-04-25 03:36 15.49903 -61.85044 39244 ft 445 kts 187°
2026-04-25 03:36 15.46819 -61.85334 39472 ft 444 kts 187°
2026-04-25 03:36 15.43741 -61.85627 39691 ft 444 kts 187°
2026-04-25 03:36 15.40657 -61.85922 39891 ft 446 kts 187°
2026-04-25 03:37 15.34452 -61.86516 39979 ft 448 kts 187°
2026-04-25 03:37 15.28254 -61.87107 39996 ft 444 kts 187°
2026-04-25 03:38 15.23141 -61.87594 40006 ft 443 kts 187°
2026-04-25 03:38 15.17033 -61.88176 40002 ft 443 kts 187°
2026-04-25 03:39 15.10893 -61.88761 39994 ft 443 kts 187°
2026-04-25 03:39 15.04738 -61.89346 40008 ft 444 kts 187°
2026-04-25 03:40 14.98571 -61.89933 39999 ft 445 kts 187°
2026-04-25 03:40 14.92393 -61.90520 40000 ft 445 kts 187°
2026-04-25 03:41 14.86254 -61.91102 39997 ft 446 kts 187°
2026-04-25 03:41 14.80071 -61.91689 39987 ft 446 kts 187°
2026-04-25 03:42 14.73880 -61.92275 40001 ft 446 kts 187°
2026-04-25 03:42 14.67687 -61.92862 39994 ft 447 kts 186°
2026-04-25 03:43 14.61496 -61.93449 39997 ft 447 kts 186°
2026-04-25 03:43 14.55307 -61.94035 39998 ft 446 kts 186°
2026-04-25 03:44 14.49120 -61.94620 39985 ft 446 kts 186°
2026-04-25 03:44 14.42926 -61.95205 39999 ft 447 kts 186°
2026-04-25 03:45 14.36756 -61.95788 39995 ft 447 kts 186°
2026-04-25 03:45 14.30556 -61.96374 39995 ft 448 kts 186°
2026-04-25 03:46 14.24340 -61.96961 39994 ft 448 kts 186°
2026-04-25 03:46 14.18135 -61.97546 39988 ft 448 kts 186°
2026-04-25 03:47 14.11927 -61.98131 39993 ft 448 kts 186°
2026-04-25 03:47 14.05736 -61.98715 39991 ft 449 kts 186°
2026-04-25 03:48 13.99511 -61.99302 39992 ft 449 kts 186°
2026-04-25 03:48 13.93275 -61.99889 39991 ft 449 kts 186°
2026-04-25 03:49 13.90149 -62.00182 39550 ft 455 kts 186°
2026-04-25 03:49 13.86977 -62.00482 38901 ft 457 kts 186°
2026-04-25 03:49 13.83814 -62.00781 38141 ft 457 kts 186°
2026-04-25 03:49 13.80650 -62.01081 37373 ft 456 kts 186°
2026-04-25 03:50 13.77489 -62.01380 36626 ft 456 kts 186°
2026-04-25 03:50 13.74328 -62.01679 35844 ft 457 kts 186°
2026-04-25 03:50 13.71149 -62.01980 35025 ft 459 kts 186°
2026-04-25 03:50 13.68021 -62.02275 34409 ft 456 kts 186°
2026-04-25 03:51 13.64865 -62.02573 33755 ft 454 kts 185°
2026-04-25 03:51 13.61733 -62.02867 33118 ft 451 kts 186°
2026-04-25 03:51 13.58618 -62.03158 32531 ft 447 kts 186°
2026-04-25 03:51 13.55517 -62.03448 31942 ft 444 kts 185°
2026-04-25 03:52 13.52452 -62.03735 31379 ft 441 kts 185°
2026-04-25 03:52 13.49400 -62.04020 30814 ft 438 kts 185°
2026-04-25 03:52 13.46372 -62.04303 30245 ft 436 kts 186°
2026-04-25 03:52 13.43358 -62.04585 29602 ft 434 kts 186°
2026-04-25 03:53 13.40393 -62.04863 28949 ft 430 kts 186°
2026-04-25 03:53 13.37426 -62.05142 28306 ft 427 kts 186°
2026-04-25 03:53 13.34475 -62.05418 27706 ft 423 kts 185°
2026-04-25 03:53 13.31554 -62.05692 27109 ft 419 kts 185°
2026-04-25 03:54 13.28661 -62.05963 26520 ft 416 kts 185°
2026-04-25 03:54 13.25786 -62.06233 25940 ft 413 kts 185°
2026-04-25 03:54 13.22936 -62.06500 25355 ft 410 kts 185°
2026-04-25 03:54 13.20096 -62.06766 24775 ft 408 kts 185°
2026-04-25 03:55 13.17274 -62.07030 24205 ft 407 kts 185°
2026-04-25 03:55 13.14461 -62.07294 23638 ft 405 kts 185°
2026-04-25 03:55 13.11654 -62.07558 22979 ft 403 kts 185°
2026-04-25 03:55 13.08869 -62.07819 22392 ft 400 kts 185°
2026-04-25 03:56 13.06147 -62.08074 21835 ft 396 kts 185°
2026-04-25 03:56 13.03419 -62.08330 21283 ft 392 kts 185°
2026-04-25 03:56 13.00708 -62.08583 20762 ft 389 kts 185°
2026-04-25 03:56 12.98017 -62.08835 20218 ft 385 kts 185°
2026-04-25 03:57 12.95362 -62.09083 19705 ft 382 kts 184°
2026-04-25 03:57 12.92718 -62.09330 19175 ft 380 kts 184°
2026-04-25 03:57 12.90085 -62.09577 18662 ft 378 kts 184°
2026-04-25 03:57 12.87473 -62.09821 18121 ft 376 kts 184°
2026-04-25 03:58 12.84872 -62.10065 17567 ft 373 kts 184°
2026-04-25 03:58 12.82294 -62.10306 17036 ft 370 kts 184°
2026-04-25 03:58 12.79773 -62.10542 16537 ft 367 kts 184°
2026-04-25 03:58 12.77237 -62.10779 16042 ft 364 kts 184°
2026-04-25 03:59 12.74726 -62.11014 15537 ft 361 kts 184°
2026-04-25 03:59 12.72226 -62.11248 15048 ft 359 kts 184°
2026-04-25 03:59 12.69741 -62.11480 14544 ft 358 kts 184°
2026-04-25 03:59 12.67263 -62.11712 14041 ft 356 kts 184°
2026-04-25 04:00 12.64799 -62.11944 13506 ft 355 kts 184°
2026-04-25 04:00 12.62346 -62.12175 12974 ft 353 kts 184°
2026-04-25 04:00 12.59906 -62.12405 12461 ft 350 kts 184°
2026-04-25 04:00 12.57489 -62.12633 11968 ft 347 kts 184°
2026-04-25 04:01 12.55091 -62.12855 11481 ft 345 kts 184°
2026-04-25 04:01 12.52706 -62.13074 10975 ft 343 kts 184°
2026-04-25 04:01 12.50374 -62.13294 10557 ft 338 kts 184°
2026-04-25 04:01 12.48075 -62.13514 10402 ft 325 kts 183°
2026-04-25 04:02 12.45865 -62.13727 10255 ft 313 kts 183°
2026-04-25 04:02 12.43732 -62.13931 10116 ft 302 kts 183°
2026-04-25 04:02 12.41679 -62.14122 9963 ft 291 kts 182°
2026-04-25 04:02 12.39680 -62.14304 9671 ft 287 kts 182°
2026-04-25 04:03 12.37693 -62.14482 9284 ft 284 kts 181°
2026-04-25 04:03 12.35744 -62.14567 8953 ft 278 kts 171°
2026-04-25 04:03 12.33965 -62.13963 8603 ft 266 kts 150°
2026-04-25 04:03 12.32338 -62.13077 8283 ft 265 kts 150°
2026-04-25 04:04 12.30696 -62.12216 7979 ft 264 kts 150°
2026-04-25 04:04 12.29058 -62.11372 7653 ft 263 kts 150°
2026-04-25 04:04 12.27425 -62.10537 7340 ft 262 kts 150°
2026-04-25 04:04 12.25793 -62.09708 7036 ft 262 kts 150°
2026-04-25 04:05 12.24162 -62.08883 6722 ft 261 kts 150°
2026-04-25 04:05 12.22547 -62.08070 6412 ft 261 kts 150°
2026-04-25 04:05 12.20919 -62.07252 6086 ft 261 kts 150°
2026-04-25 04:05 12.19290 -62.06437 5757 ft 260 kts 150°
2026-04-25 04:06 12.17671 -62.05630 5446 ft 258 kts 150°
2026-04-25 04:06 12.16059 -62.04827 5135 ft 256 kts 150°
2026-04-25 04:06 12.14470 -62.04032 4872 ft 252 kts 150°
2026-04-25 04:06 12.12956 -62.03271 4845 ft 234 kts 149°
2026-04-25 04:07 12.11515 -62.02539 4579 ft 229 kts 148°
2026-04-25 04:07 12.10098 -62.01814 4248 ft 224 kts 148°
2026-04-25 04:07 12.08738 -62.01135 3960 ft 209 kts 149°
2026-04-25 04:07 12.07461 -62.00500 3653 ft 201 kts 148°
2026-04-25 04:08 12.06211 -61.99872 3337 ft 200 kts 148°
2026-04-25 04:08 12.04949 -61.99235 3032 ft 204 kts 148°
2026-04-25 04:08 12.03680 -61.98593 2738 ft 202 kts 148°
2026-04-25 04:08 12.02457 -61.97971 2440 ft 191 kts 147°
2026-04-25 04:09 12.01278 -61.97374 2257 ft 185 kts 141°
2026-04-25 04:09 12.00588 -61.96395 2069 ft 173 kts 97°
2026-04-25 04:09 12.00567 -61.95152 1842 ft 177 kts 87°
2026-04-25 04:09 12.00554 -61.93912 1751 ft 168 kts 89°
2026-04-25 04:10 12.00542 -61.92746 1688 ft 168 kts 88°
2026-04-25 04:10 12.00535 -61.91568 1556 ft 163 kts 88°
2026-04-25 04:10 12.00532 -61.90443 1470 ft 158 kts 88°
2026-04-25 04:10 12.00536 -61.89308 1329 ft 160 kts 89°
2026-04-25 04:11 12.00436 -61.87118 1060 ft 151 kts 86°
2026-04-25 04:11 12.00674 -61.86084 976 ft 149 kts 72°
2026-04-25 04:11 12.00791 -61.85029 906 ft 151 kts 90°
2026-04-25 04:12 12.00648 -61.83987 947 ft 146 kts 98°
2026-04-25 04:12 12.00457 -61.82996 815 ft 140 kts 97°
2026-04-25 04:12 12.00413 -61.82002 661 ft 142 kts 89°
2026-04-25 04:12 12.00427 -61.81016 602 ft 139 kts 91°
2026-04-25 04:13 12.00426 -61.79996 824 ft 148 kts 92°
2026-04-25 04:13 12.00419 -61.78874 966 ft 177 kts 92°
2026-04-25 04:13 12.00361 -61.77504 1052 ft 212 kts 94°
2026-04-25 04:13 12.00231 -61.75894 1120 ft 230 kts 104°
2026-04-25 04:14 11.99505 -61.74425 1301 ft 238 kts 131°
2026-04-25 04:14 11.98131 -61.73436 1556 ft 248 kts 156°
2026-04-25 04:14 11.96413 -61.73190 1810 ft 251 kts 185°
2026-04-25 04:14 11.94858 -61.73821 2047 ft 240 kts 216°
2026-04-25 04:15 11.93862 -61.75149 2266 ft 234 kts 247°
2026-04-25 04:15 11.93504 -61.76806 2558 ft 245 kts 260°
2026-04-25 04:15 11.93283 -61.78509 2813 ft 239 kts 261°
2026-04-25 04:15 11.93082 -61.80203 2900 ft 240 kts 261°
2026-04-25 04:16 11.92883 -61.81890 2939 ft 239 kts 261°
2026-04-25 04:16 11.92711 -61.83569 2807 ft 240 kts 266°
2026-04-25 04:16 11.92780 -61.85275 2619 ft 238 kts 273°
2026-04-25 04:16 11.92922 -61.86955 2402 ft 240 kts 274°
2026-04-25 04:17 11.93058 -61.88653 2214 ft 237 kts 274°
2026-04-25 04:17 11.93186 -61.90322 2053 ft 232 kts 273°
2026-04-25 04:17 11.93324 -61.91949 1924 ft 228 kts 274°
2026-04-25 04:17 11.93451 -61.93578 1785 ft 228 kts 274°
2026-04-25 04:18 11.93571 -61.95166 1728 ft 222 kts 274°
2026-04-25 04:18 11.93696 -61.96741 1680 ft 223 kts 274°
2026-04-25 04:18 11.93912 -61.98299 1663 ft 219 kts 292°
2026-04-25 04:18 11.94878 -61.99403 1689 ft 207 kts 339°
2026-04-25 04:19 11.96249 -61.99527 1689 ft 197 kts 18°
2026-04-25 04:19 11.97541 -61.99065 1688 ft 198 kts 28°
2026-04-25 04:19 11.98723 -61.98358 1675 ft 193 kts 37°
2026-04-25 04:19 11.99791 -61.97568 1664 ft 185 kts 47°
2026-04-25 04:20 12.00398 -61.96484 1679 ft 177 kts 77°
2026-04-25 04:20 12.00505 -61.95245 1679 ft 175 kts 90°
2026-04-25 04:20 12.00501 -61.93970 1691 ft 180 kts 92°
2026-04-25 04:20 12.00492 -61.92712 1680 ft 174 kts 92°
2026-04-25 04:21 12.00483 -61.91509 1689 ft 166 kts 91°
2026-04-25 04:21 12.00475 -61.90340 1652 ft 168 kts 91°
2026-04-25 04:21 12.00469 -61.89166 1486 ft 159 kts 92°
2026-04-25 04:21 12.00461 -61.88081 1372 ft 150 kts 93°
2026-04-25 04:22 12.00454 -61.87025 1205 ft 150 kts 92°
2026-04-25 04:22 12.00447 -61.85969 1061 ft 147 kts 91°
2026-04-25 04:22 12.00439 -61.84909 917 ft 148 kts 91°
2026-04-25 04:22 12.00435 -61.83892 745 ft 143 kts 91°
2026-04-25 04:23 12.00430 -61.82889 566 ft 141 kts 91°
2026-04-25 04:23 12.00425 -61.81876 476 ft 141 kts 91°
2026-04-25 04:23 12.00425 -61.80887 263 ft 134 kts 92°
2026-04-25 04:23 12.00418 -61.79953 87 ft 128 kts 92°
2026-04-25 04:24 12.00409 -61.79070 44 ft 110 kts 90°
2026-04-25 04:24 12.00410 -61.78633 46 ft 75 kts 90°
2026-04-25 04:24 12.00406 -61.78229 40 ft 52 kts 90°
2026-04-25 04:24 12.00404 -61.77882 40 ft 46 kts 90°
2026-04-25 04:25 12.00402 -61.77587 50 ft 38 kts 90°
2026-04-25 04:25 12.00427 -61.77415 55 ft 7 kts 96°
2026-04-25 04:25 12.00414 -61.77399 54 ft 2 kts 154°
2026-04-25 04:25 12.00391 -61.77415 53 ft 1 kts 251°
2026-04-25 04:26 12.00398 -61.77469 52 ft 18 kts 276°
2026-04-25 04:26 12.00400 -61.77666 47 ft 37 kts 270°
2026-04-25 04:26 12.00403 -61.77969 38 ft 44 kts 270°
2026-04-25 04:26 12.00404 -61.78272 41 ft 40 kts 270°
2026-04-25 04:27 12.00405 -61.78522 46 ft 25 kts 271°
2026-04-25 04:27 12.00475 -61.78596 46 ft 15 kts 353°
2026-04-25 04:27 12.00556 -61.78606 49 ft 9 kts 320°
2026-04-25 04:27 12.00601 -61.78640 50 ft 7 kts 348°
2026-04-25 04:28 12.00643 -61.78642 50 ft 5 kts 359°
2026-04-25 04:28 12.00649 -61.78642 50 ft 0 kts 359°